Tracking 27122 objects as of 26-Mar-2023
HD Live streaming from Space Station
objects crossing your sky now

SL-6 R/B(2)

Track SL-6 R/B(2) now!


NORAD ID: 16533
Int'l Code: 1986-011F
Perigee: 6,357.1 km
Apogee: 33,413.2 km
Inclination: 71.0 °
Period: 705.7 minutes
Semi major axis: 26256 km
RCS: 5.6516 m2 (large)
Launch date: February 1, 1986
Source: Commonwealth of Independent States (former USSR) (CIS)
Launch site: PLESETSK MISSILE AND SPACE COMPLEX (PKMTR)

Note: This is a ROCKET BODY
Your satellite tracking list
Your tracking list is empty




NASA's NSSDC Master Catalog

Two Line Element Set (TLE):
1 16533U 86011F   23083.67880464 -.00000310  00000-0  00000-0 0  9998
2 16533  71.0026 174.8379 5152333  35.0339 291.3649  2.04059296259962
Source of the keplerian elements: AFSPC